Location: Chircca
(13.7944°S, 72.0608°W)
Time: 05:46:08
(UTC+00:00)

Okean O Rocket - Pass Details

Date: 14 July 2020
Orbit: 623 x 644 km, 98.2° (Epoch: 14 August)

Event Time Altitude Azimuth Distance (km) Brightness Sun altitude
Rises 10:07:40 0° 19° (NNE) 2,912 5.6 -15.7°
Reaches altitude 10° 10:09:52 10° 22° (NNE) 2,014 4.8 -15.1°
Maximum altitude 10:14:12 62° 103° (ESE) 721 2.1 -14.2°
Drops below altitude 10° 10:18:36 10° 183° (S) 2,044 4.0 -13.1°
Sets 10:20:50 0° 186° (S) 2,961 4.8 -12.6°
